Flag for U.S.A. Weather past 2 weeks in Santa Clara, California, U.S.A.

Now
70 °F

Passing clouds.


Feels Like: 75 °F
Forecast: 65 / 73 °F
Wind: 8 mph from Southeast

Location: San Jose International Airport

Current Time: Sep 18, 2014 at 12:49:28 AM

Latest Report: Sep 17, 2014 at 11:53 PM


Visibility: 10 mi

Pressure: 29.78 "Hg

Humidity: 66%

Dew point: 58 °F

Location of Santa ClaraLocation

Historic Weather in Santa Clara — Graph

°F

Santa Clara temperature yesterday

Maximum temperature yesterday: 82 °F (at 1:53 PM)
Minimum temperature yesterday: 60 °F (at 3:53 AM)
Average temperature yesterday: 70 °F

Past Weeks' High & Low Weather Summary

 TemperatureHumidityPressure
High88 °F (Sep 10, 3:53 PM)97% (Sep 10, 5:53 AM)30.00 "Hg (Sep 10, 5:53 AM)
Low55 °F (Sep 9, 2:53 AM)22% (Sep 11, 2:53 PM)29.68 "Hg (Sep 3, 4:53 PM)
Average66 °F71%29.85 "Hg
* Reported Sep 2 10:53 PM — Sep 17 10:53 PM, Santa Clara, Weather by CustomWeather, © 2014

Note: Actual official high and low records may vary slightly from our data, if they occured in-between our weather recording intervals... More about our weather records

Advertising

Santa Clara weather history for previous 24 hours

 ConditionsComfort  
Time TempWeatherWind HumidityBarometerVisibility
10:53 PM
Sep 17
70 °FPassing clouds.10 mph68%29.79 "Hg10 mi
9:53 PM70 °FPassing clouds.9 mph71%29.78 "Hg10 mi
8:53 PM70 °FPassing clouds.12 mph61%29.78 "Hg10 mi
7:53 PM73 °FScattered clouds.14 mph51%29.75 "Hg10 mi
6:53 PM77 °FScattered clouds.13 mph40%29.73 "Hg10 mi
5:53 PM81 °FPassing clouds.13 mph29%29.73 "Hg10 mi
4:53 PM82 °FPassing clouds.7 mph40%29.73 "Hg10 mi
3:53 PM80 °FPassing clouds.8 mph45%29.74 "Hg10 mi
2:53 PM78 °FPassing clouds.15 mph50%29.75 "Hg10 mi
1:53 PM82 °FPassing clouds.12 mph44%29.75 "Hg10 mi
12:53 PM80 °FSunny.7 mph45%29.78 "Hg10 mi
11:53 AM75 °FSunny.No wind50%29.80 "Hg10 mi
10:53 AM71 °FSunny.No wind61%29.81 "Hg10 mi
9:53 AM67 °FPassing clouds.No wind71%29.82 "Hg8 mi
8:53 AM65 °FScattered clouds.No wind78%29.82 "Hg7 mi
7:53 AM62 °FPartly sunny.3 mph83%29.82 "Hg9 mi
6:53 AM62 °FMostly cloudy.No wind90%29.81 "Hg9 mi
5:53 AM61 °FMostly cloudy.No wind83%29.81 "Hg10 mi
5:04 AM61 °FPassing clouds.No wind83%29.80 "Hg10 mi
4:53 AM60 °FPassing clouds.No wind86%29.80 "Hg10 mi
3:53 AM60 °FClear.No wind86%29.80 "Hg10 mi
2:53 AM62 °FClear.No wind90%29.80 "Hg10 mi
1:53 AM62 °FClear.No wind90%29.81 "Hg10 mi
12:53 AM62 °FClear.3 mph90%29.82 "Hg10 mi
Weather by CustomWeather, © 2014

See weather overviewHow to use our weather pages